Tracking 28920 objects as of 26-May-2024
HD Live streaming from Space Station
objects crossing your sky now

JIADING 1

Track JIADING 1 now!
10-day predictions


NORAD ID: 43713
Int'l Code: 2018-094D
Perigee: 411.9 km
Apogee: 418.6 km
Inclination: 97.4 °
Period: 92.7 minutes
Semi major axis: 6786 km
RCS: Unknown
Launch date: November 19, 2018
Source: People's Republic of China (PRC)
Launch site: Jiuquan Satellite Launch Center, China (JSC)
Your satellite tracking list
Your tracking list is empty




NASA's NSSDC Master Catalog

Two Line Element Set (TLE):
1 43713U 18094D   24147.87759216  .00035543  00000-0  57089-3 0  9995
2 43713  97.3589 170.6455 0004918 339.8102  20.2956 15.52940352307782
Source of the keplerian elements: AFSPC